This is the latest recevied weather packets stored in our database for station/object SR4DIG-13. If no packets are shown the sender has not sent any weather packets the latest 10 day(s).
| Time | Temp. | Humidity | Pressure | Rain* | Wind** | Luminosity | Snow |
|---|---|---|---|---|---|---|---|
| 1777465221 | 10° C | 38% | 1026 hPa | 0 mm | - | - | - |
| 1777464920 | 10.56° C | 39% | 1026 hPa | 0 mm | - | - | - |
| 1777464587 | 10° C | 40% | 1025.8 hPa | 0 mm | - | - | - |
| 1777464286 | 10° C | 41% | 1025.9 hPa | 0 mm | - | - | - |
| 1777463985 | 8.89° C | 41% | 1026.1 hPa | 0 mm | - | - | - |
| 1777463684 | 8.33° C | 42% | 1026 hPa | 0 mm | - | - | - |
| 1777463103 | 8.33° C | 42% | 1026.2 hPa | 0 mm | - | - | - |
| 1777462802 | 8.33° C | 43% | 1026.2 hPa | 0 mm | - | - | - |
| 1777462501 | 7.78° C | 43% | 1026 hPa | 0 mm | - | - | - |
| 1777462200 | 7.78° C | 45% | 1026 hPa | 0 mm | - | - | - |
| 1777461900 | 7.78° C | 46% | 1026 hPa | 0 mm | - | - | - |
| 1777461599 | 7.78° C | 46% | 1026 hPa | 0 mm | - | - | - |
| 1777461298 | 7.22° C | 47% | 1025.9 hPa | 0 mm | - | - | - |
| 1777460967 | 7.22° C | 47% | 1026 hPa | 0 mm | - | - | - |
| 1777460666 | 7.22° C | 47% | 1026.1 hPa | 0 mm | - | - | - |
| 1777460365 | 6.67° C | 49% | 1026.1 hPa | 0 mm | - | - | - |
| 1777460064 | 6.11° C | 49% | 1026.2 hPa | 0 mm | - | - | - |
| 1777459489 | 6.11° C | 49% | 1026.2 hPa | 0 mm | - | - | - |
| 1777459188 | 6.67° C | 48% | 1026 hPa | 0 mm | - | - | - |
| 1777458888 | 7.22° C | 47% | 1025.9 hPa | 0 mm | - | - | - |
| 1777458587 | 7.22° C | 47% | 1025.9 hPa | 0 mm | - | - | - |
| 1777458286 | 7.22° C | 47% | 1025.9 hPa | 0 mm | - | - | - |
| 1777457985 | 6.67° C | 48% | 1025.7 hPa | 0 mm | - | - | - |
| 1777457684 | 6.11° C | 47% | 1025.7 hPa | 0 mm | - | - | - |
| 1777457337 | 6.11° C | 48% | 1025.7 hPa | 0 mm | - | - | - |
* Rain since midnight (hover to see other rain measurements)
** Current wind speed in m/s (hover to see current wind gust speed)